Location: Lucerne Valley
(34.4439°N, 116.9669°E)
Time: 13:52:21
(UTC-07:00)

OTV 5 (USA 277) - Pass Details

Date: 13 October 2017
Orbit: 404 x 417 km, 43.0° (Epoch: 07 September)

Event Time Altitude Azimuth Distance (km) Brightness Sun altitude
Rises 05:03:52 0° 293° (WNW) 2,351 ? -30.2°
Reaches altitude 10° 05:06:26 10° 313° (NW) 1,488 ? -30.8°
Enters shadow 05:06:27 10° 314° (NW) 1,481 ? -30.8°
